Weather History for KBWI - July, 2013

Change the Weather History Date:

Friday, July 12, 2013

  Actual Average Record
Temperature  
Mean Temperature 72 °F 77 °F  
Max Temperature 76 °F 88 °F 97 °F (1908)
Min Temperature 67 °F 67 °F 53 °F (2002)
Degree Days  
Heating Degree Days 0 0  
Month to date heating degree days 0 0  
Since 1 June heating degree days 0 15  
Since 1 July heating degree days 0 0  
Cooling Degree Days 7 12  
Month to date cooling degree days 172 142  
Year to date cooling degree days 580 464  
Since 1 June cooling degree days 449 380  
Growing Degree Days 20 (Base 50)    
Moisture  
Dew Point 67 °F    
Average Humidity 91    
Maximum Humidity 97    
Minimum Humidity 84    
Precipitation  
Precipitation 0.66 in 0.14 in 3.90 in (1903)
Month to date precipitation 1.90 1.49  
Year to date precipitation 23.57 21.98  
Snow  
Snow 0.00 in 0.00 in - ()
Month to date snowfall 0.0 0.0  
Since 1 July snowfall 0.0 0.0  
Snow Depth 0.00 in    
Sea Level Pressure  
Sea Level Pressure 29.97 in    
Wind  
Wind Speed 7 mph (NNW)    
Max Wind Speed 21 mph    
Max Gust Speed 24 mph    
Visibility 7 miles    
Events Rain , Thunderstorm    
T = Trace of Precipitation, MM = Missing Value Source: NWS Daily Summary

Daily Weather History Graph

Daily Weather History Graph

Search for Another Location

Airport or City:

Trip Planner

Search our weather history database for the weather conditions in past years. The results will help you decide how hot, cold, wet, or windy it might be!

Date:

Astronomy

Jul. 12, 2013 Rise Set
Actual Time 5:50 AM EDT 8:33 PM EDT
Civil Twilight 5:19 AM EDT 9:04 PM EDT
Nautical Twilight 4:40 AM EDT 9:44 PM EDT
Astronomical Twilight 3:55 AM EDT 10:28 PM EDT
Moon 10:03 AM EDT (7/12) 10:45 PM EDT (7/12)
Length of Visible Light 15h 45m
Length of Day
14h 42m
Waxing Crescent, 17% of the Moon is Illuminated
Jul 12
Waxing Crescent
Jul 15
First Quarter
Jul 22
Full
Jul 29
Last Quarter
Aug 6
New

Hourly Weather History & Observations

Time (EDT) Temp. Dew Point Humidity Pressure Visibility Wind Dir Wind Speed Gust Speed Precip Events Conditions
12:54 AM 73.9 °F 72.0 °F 93% 29.91 in 10.0 mi SW 3.5 mph - N/A   Overcast
1:54 AM 73.9 °F 72.0 °F 93% 29.92 in 10.0 mi WNW 3.5 mph - N/A   Overcast
2:14 AM 75.2 °F 71.6 °F 89% 29.92 in 10.0 mi NNW 3.5 mph - N/A Thunderstorm Thunderstorm
2:54 AM 75.0 °F 64.9 °F 71% 29.91 in 10.0 mi North 6.9 mph - 0.00 in Rain , Thunderstorm Light Thunderstorms and Rain
3:29 AM 73.4 °F 66.2 °F 78% 29.91 in 10.0 mi Variable 6.9 mph - 0.00 in Rain Light Rain
3:54 AM 71.1 °F 64.9 °F 81% 29.90 in 10.0 mi NNW 6.9 mph - 0.00 in   Overcast
4:34 AM 69.8 °F 64.4 °F 83% 29.91 in 10.0 mi WNW 6.9 mph - 0.00 in Thunderstorm Thunderstorm
4:54 AM 69.1 °F 64.9 °F 87% 29.93 in 10.0 mi West 9.2 mph - 0.00 in Rain , Thunderstorm Light Thunderstorms and Rain
5:10 AM 69.8 °F 64.4 °F 83% 29.94 in 7.0 mi WNW 3.5 mph - 0.01 in Rain Light Rain
5:36 AM 68.0 °F 64.4 °F 88% 29.94 in 4.0 mi NW 6.9 mph - 0.05 in Rain , Thunderstorm Thunderstorms and Rain
5:54 AM 68.0 °F 64.9 °F 90% 29.93 in 3.0 mi NW 4.6 mph - 0.09 in Rain , Thunderstorm Thunderstorms and Rain
6:02 AM 66.2 °F 64.4 °F 94% 29.93 in 3.0 mi NNW 6.9 mph - 0.02 in Rain Rain
6:54 AM 68.0 °F 64.0 °F 87% 29.94 in 4.0 mi Variable 5.8 mph - 0.12 in Rain Light Rain
7:54 AM 68.0 °F 64.9 °F 90% 29.96 in 4.0 mi NNW 3.5 mph - 0.09 in Rain Light Rain
8:54 AM 68.0 °F 64.9 °F 90% 29.97 in 6.0 mi NNE 9.2 mph - 0.06 in Rain Light Rain
9:08 AM 68.0 °F 64.4 °F 88% 29.97 in 2.5 mi NNE 10.4 mph - 0.00 in Rain Light Rain
9:23 AM 68.0 °F 64.4 °F 88% 29.97 in 3.0 mi Variable 6.9 mph - 0.04 in Rain Rain
9:54 AM 68.0 °F 64.9 °F 90% 29.97 in 5.0 mi Variable 4.6 mph - 0.07 in Rain Light Rain
10:54 AM 70.0 °F 66.9 °F 90% 29.97 in 6.0 mi NE 13.8 mph 21.9 mph 0.01 in Rain Light Rain
11:39 AM 69.8 °F 66.2 °F 88% 29.99 in 5.0 mi NE 20.7 mph - 0.02 in Rain Light Rain
11:54 AM 70.0 °F 66.9 °F 90% 29.99 in 5.0 mi NE 17.3 mph 21.9 mph 0.03 in Rain Light Rain
12:54 PM 70.0 °F 64.9 °F 84% 29.98 in 6.0 mi NE 13.8 mph 18.4 mph 0.03 in Rain Light Rain
1:32 PM 69.8 °F 64.4 °F 83% 29.99 in 10.0 mi NE 10.4 mph - 0.00 in Rain Light Rain
1:54 PM 70.0 °F 66.0 °F 87% 29.99 in 10.0 mi NNE 9.2 mph - 0.00 in Rain Light Rain
2:43 PM 71.6 °F 66.2 °F 83% 29.99 in 5.0 mi North 4.6 mph - 0.01 in Rain Light Rain
2:54 PM 71.1 °F 66.9 °F 87% 30.00 in 6.0 mi North 6.9 mph - 0.01 in Rain Light Rain
3:30 PM 69.8 °F 66.2 °F 88% 30.00 in 3.0 mi North 5.8 mph - 0.05 in Rain Light Rain
3:41 PM 71.6 °F 68.0 °F 88% 30.00 in 6.0 mi North 3.5 mph - 0.06 in Rain Light Rain
3:54 PM 71.1 °F 68.0 °F 90% 29.99 in 6.0 mi Variable 5.8 mph - 0.07 in Rain Light Rain
4:44 PM 69.8 °F 68.0 °F 94% 29.99 in 2.5 mi North 5.8 mph - 0.03 in Rain Rain
4:49 PM 69.8 °F 68.0 °F 94% 30.00 in 3.0 mi NNW 4.6 mph - 0.07 in Rain Rain
4:54 PM 70.0 °F 68.0 °F 93% 29.99 in 3.0 mi North 6.9 mph - 0.07 in Rain Light Rain
5:50 PM 71.6 °F 69.8 °F 94% 29.98 in 7.0 mi North 5.8 mph - 0.00 in   Overcast
5:54 PM 73.0 °F 69.1 °F 87% 29.98 in 8.0 mi North 4.6 mph - 0.00 in   Overcast
6:11 PM 71.6 °F 69.8 °F 94% 29.98 in 5.0 mi NNW 4.6 mph - 0.00 in Rain Light Rain
6:54 PM 72.0 °F 69.1 °F 91% 29.99 in 4.0 mi Variable 5.8 mph - 0.00 in Rain Light Rain
7:54 PM 71.1 °F 69.1 °F 93% 29.99 in 8.0 mi NNW 5.8 mph - 0.00 in Rain Light Rain
8:35 PM 71.6 °F 68.0 °F 88% 29.99 in 10.0 mi NW 4.6 mph - 0.00 in   Overcast
8:54 PM 71.1 °F 68.0 °F 90% 29.99 in 10.0 mi NNW 8.1 mph - 0.00 in   Overcast
9:27 PM 71.6 °F 68.0 °F 88% 30.00 in 10.0 mi NNW 6.9 mph - N/A   Overcast
9:54 PM 72.0 °F 68.0 °F 87% 30.00 in 10.0 mi NNW 5.8 mph - N/A   Overcast
10:54 PM 71.1 °F 66.9 °F 87% 30.00 in 10.0 mi NNW 8.1 mph - N/A   Overcast
11:54 PM 70.0 °F 66.9 °F 90% 30.01 in 5.0 mi NW 5.8 mph - 0.00 in   Light Drizzle